TimeEST,TemperatureF,Dew PointF,Humidity,Sea Level PressureIn,VisibilityMPH,Wind Direction,Wind SpeedMPH,Gust SpeedMPH,PrecipitationIn,Events,Conditions,WindDirDegrees,DateUTC
12:35 AM,28.4,21.2,74,29.92,3.0,Variable,4.6,-,0.01,Snow,Light Snow,0,2013-03-03 05:35:00
12:53 AM,28.0,21.9,78,29.96,2.5,Variable,3.5,-,0.01,Snow,Light Snow,0,2013-03-03 05:53:00
1:09 AM,28.4,21.2,74,29.92,2.5,West,3.5,-,0.00,Snow,Light Snow,260,2013-03-03 06:09:00
1:38 AM,28.4,21.2,74,29.93,3.0,Calm,Calm,-,0.00,Snow,Light Snow,0,2013-03-03 06:38:00
1:45 AM,28.4,21.2,74,29.92,3.0,Variable,4.6,-,0.00,Snow,Light Snow,0,2013-03-03 06:45:00
1:53 AM,28.0,21.9,78,29.96,3.0,West,4.6,-,0.00,Snow,Light Snow,270,2013-03-03 06:53:00
2:53 AM,28.0,21.9,78,29.95,4.0,Variable,4.6,-,0.00,Snow,Light Snow,0,2013-03-03 07:53:00
3:53 AM,28.0,21.0,75,29.95,5.0,West,6.9,-,0.00,Snow,Light Snow,280,2013-03-03 08:53:00
4:25 AM,28.4,21.2,74,29.91,5.0,NW,4.6,-,0.00,Snow,Light Snow,310,2013-03-03 09:25:00
4:37 AM,28.4,21.2,74,29.92,5.0,West,5.8,-,0.00,Snow,Light Snow,280,2013-03-03 09:37:00
4:46 AM,28.4,21.2,74,29.92,6.0,Variable,4.6,-,0.00,Snow,Light Snow,0,2013-03-03 09:46:00
4:53 AM,28.0,21.0,75,29.96,7.0,WNW,4.6,-,0.00,Snow,Light Snow,290,2013-03-03 09:53:00
5:12 AM,28.4,21.2,74,29.92,9.0,West,5.8,-,0.00,Snow,Light Snow,280,2013-03-03 10:12:00
5:37 AM,28.4,21.2,74,29.92,2.5,Variable,6.9,-,0.00,Snow,Light Snow,0,2013-03-03 10:37:00
5:53 AM,28.0,19.9,72,29.96,3.0,WNW,4.6,-,0.00,Snow,Light Snow,290,2013-03-03 10:53:00
6:53 AM,27.0,19.0,72,29.97,9.0,Variable,5.8,-,0.00,Snow,Light Snow,0,2013-03-03 11:53:00
7:53 AM,27.0,18.0,69,29.98,10.0,NW,4.6,-,0.00,,Overcast,310,2013-03-03 12:53:00
8:31 AM,26.6,17.6,69,29.95,1.8,WNW,5.8,-,0.00,Snow,Light Snow,300,2013-03-03 13:31:00
8:42 AM,26.6,17.6,69,29.95,1.2,NW,6.9,-,0.00,Snow,Light Snow,310,2013-03-03 13:42:00
8:53 AM,27.0,18.0,69,29.99,1.8,NW,3.5,-,0.00,Snow,Light Snow,310,2013-03-03 13:53:00
9:01 AM,26.6,19.4,74,29.95,2.0,Variable,3.5,-,0.00,Snow,Light Snow,0,2013-03-03 14:01:00
9:22 AM,26.6,19.4,74,29.95,1.2,WNW,3.5,-,0.00,Snow,Light Snow,290,2013-03-03 14:22:00
9:41 AM,26.6,17.6,69,29.95,2.5,West,6.9,-,0.00,Snow,Light Snow,270,2013-03-03 14:41:00
9:49 AM,26.6,17.6,69,29.95,3.0,West,8.1,-,0.00,Snow,Light Snow,280,2013-03-03 14:49:00
9:53 AM,27.0,18.0,69,30.00,2.0,WNW,8.1,-,0.00,Snow,Light Snow,290,2013-03-03 14:53:00
10:02 AM,26.6,17.6,69,29.96,1.2,WNW,10.4,-,0.00,Snow,Light Snow,290,2013-03-03 15:02:00
10:28 AM,26.6,19.4,74,29.95,2.0,WNW,3.5,-,0.00,Snow,Light Snow,300,2013-03-03 15:28:00
10:41 AM,28.4,19.4,69,29.95,5.0,WNW,5.8,-,0.00,Snow,Light Snow,290,2013-03-03 15:41:00
10:53 AM,28.9,19.0,67,29.99,7.0,NW,3.5,-,0.00,Snow,Light Snow,320,2013-03-03 15:53:00
11:53 AM,28.9,19.9,69,29.99,5.0,Variable,4.6,-,N/A,,Haze,0,2013-03-03 16:53:00
12:05 PM,28.4,19.4,69,29.94,6.0,North,4.6,-,N/A,,Haze,360,2013-03-03 17:05:00
12:27 PM,28.4,19.4,69,29.93,3.0,West,5.8,-,N/A,,Haze,280,2013-03-03 17:27:00
12:53 PM,30.0,18.0,61,29.96,10.0,West,9.2,-,N/A,,Overcast,270,2013-03-03 17:53:00
1:53 PM,30.9,16.0,54,29.95,10.0,WNW,8.1,-,N/A,,Overcast,290,2013-03-03 18:53:00
2:53 PM,30.9,17.1,57,29.95,10.0,WNW,5.8,-,N/A,,Overcast,290,2013-03-03 19:53:00
3:53 PM,30.9,18.0,59,29.95,9.0,West,9.2,-,0.00,Snow,Light Snow,270,2013-03-03 20:53:00
4:53 PM,30.0,16.0,56,29.96,7.0,WNW,9.2,-,0.00,Snow,Light Snow,290,2013-03-03 21:53:00
5:53 PM,30.0,16.0,56,29.98,9.0,WNW,8.1,16.1,0.00,Snow,Light Snow,290,2013-03-03 22:53:00
6:53 PM,28.9,16.0,58,30.00,9.0,WNW,6.9,-,0.00,Snow,Light Snow,290,2013-03-03 23:53:00
7:53 PM,28.0,17.1,63,30.02,9.0,WNW,5.8,-,0.00,Snow,Light Snow,290,2013-03-04 00:53:00
8:53 PM,28.0,16.0,61,30.04,9.0,West,9.2,-,0.00,Snow,Light Snow,270,2013-03-04 01:53:00
9:53 PM,27.0,18.0,69,30.04,3.0,West,11.5,-,0.00,Snow,Light Snow,280,2013-03-04 02:53:00
10:02 PM,26.6,17.6,69,29.99,2.5,WNW,6.9,-,0.00,Snow,Light Snow,290,2013-03-04 03:02:00
10:11 PM,26.6,17.6,69,30.00,3.0,WNW,5.8,-,0.00,Snow,Light Snow,290,2013-03-04 03:11:00
10:53 PM,27.0,17.1,66,30.04,9.0,West,4.6,-,0.00,Snow,Light Snow,270,2013-03-04 03:53:00
11:53 PM,27.0,15.1,61,30.04,10.0,Variable,4.6,-,0.00,,Overcast,0,2013-03-04 04:53:00